Aérodrome :
LOGIN :

S'inscrire | Disclaimer

   EN    FR    IT 

 










Légende :    VFR   VFR Marginal   IFR   IFR Intensif   IFR Très Intensif
Visi : 
Plafond : 
>= 8 km
>= 3000ft
5 à 8 km
1000 à 3000 ft
1500m à 5 km
500 à 1000 ft
800 à 1500m
200 à 500 ft
< 800m
< 200 ft
Symboles :   Orages  Brouillard  Fortes neiges  Fortes précipitations  Vent > 20 kt
SIGMETs :   Divers  Orages  Givrage  Turbulence  Onde Orograph.  Cendres Volcan.






- Altitude de l'aérodrome : 286 ft
- Code IATA : TRF


ENTO - Sandefjord , Torp

DERNIER METAR :
  • 090450Z 24005KT CAVOK 02/M05 Q1017 NOSIG

METARs EXPIRÉS :
  • 090420Z VRB02KT CAVOK 03/M05 Q1017 NOSIG
  • 090350Z 09003KT 010V170 CAVOK 01/M06 Q1017
  • 090320Z AUTO VRB01KT 9999 NCD 03/M05 Q1016
  • 090250Z AUTO VRB02KT 9999 NCD 03/M05 Q1016

AMD TAF ENTO
Valide du 09 à 02h jusqu'au 10 à 00h UTC


0902/0924 VRB05KT CAVOK
BECMG 0906/0908 35015KT
BECMG 0921/0924 35005KT



MET'MAP, la Météo Aéronautique d'un coup d'oeil ! - Copyright ORBIFLY Décembre 2007 - Disclaimer

ORBIFLY MET'MAP TEAM :

Programmation & Développement : Alexandra Zaïnal
Sur une idée originale de : Baudouin d'Aumeries
Assistance à la programmation : Marc-Olivier Méhu
Soutien technique & logistique : Manuel Goepfert

Contact : metmap@orbifly.com




SOURCES & CREDITS :

   NOAA